Weather Service Report


213 
ASUS43 KBIS 290810
RWRBIS

NWR BROADCAST TEXT
NATIONAL WEATHER SERVICE BISMARCK ND
300 AM CDT SUN MAY 29 2016

NOTE: "FAIR" INDICATES FEW OR NO CLOUDS BELOW 12,000 FEET WITH NO
SIGNIFICANT WEATHER AND/OR OBSTRUCTIONS TO VISIBILITY.

  
CITY           SKY/WX    TMP DP  RH WIND       PRES   REMARKS
WILLISTON      CLEAR     45  43  93 CALM      29.97S                  
MINOT          PTCLDY    56  54  93 SW6       29.93F                  
MINOT AFB      CLEAR     53  52  97 SW7       29.93S                  
BISMARCK       CLEAR     52  51  97 W5        29.96S                  
DICKINSON      PTCLDY    47  46  97 W8        29.99R                  
GARRISON         N/A     51  49  92 NW7       29.95S                  
HETTINGER ARPT FOG       39  38  96 CALM      30.03S VSB 1/4          
JAMESTOWN      CLOUDY    54  53  97 NW3       29.90S                  
BEACH          FAIR      46  45  93 SW5       30.05S                  
CARRINGTON     FAIR      55  55 100 NW5       29.94S FOG              
HAZEN          FOG       50  50 100 SW6       29.99R VSB<1/4          
LINTON           N/A     48  48 100 CALM        N/A                   
MANDAN         FAIR      50  50 100 W7        29.97S FOG              
OAKES            N/A    N/A N/A N/A MISG        N/A                   
RUGBY          LGT RAIN  55  55 100 NW6       29.93S                  
STANLEY        FAIR      48  48 100 W3        29.98S FOG              
WATFORD CITY   FAIR      46  46 100 CALM      29.99R FOG              
$$
  
CITY           SKY/WX    TMP DP  RH WIND       PRES   REMARKS
GRAND FORKS    CLOUDY    59  57  93 NW5       29.86S                  
GRAND FORKS AF CLOUDY    59  59 100 CALM      29.87S FOG              
DEVILS LAKE    CLOUDY    58  57  97 N6        29.92S                  
FARGO          CLOUDY    60  58  92 NW7       29.87R                  
CAVALIER       CLOUDY    57  55  94 N10       29.89S                  
GRAFTON        CLOUDY    59  59 100 NW8       29.89S                  
GWINNER        FAIR      55  55 100 CALM      29.90S                  
LANGDON        CLOUDY    55  55 100 N8        29.92S FOG              
ROLLA          FOG       54  54 100 N6        29.94S VSB 3/4          
WALHALLA       FAIR      55  55 100 N9        29.90F                  
$$
  
CITY           SKY/WX    TMP DP  RH WIND       PRES   REMARKS
ABERDEEN       CLOUDY    58  55  90 W7        29.93R                  
MOBRIDGE       CLEAR     53  50  89 CALM      29.95R                  
BUFFALO          N/A     51  42  71 W7        29.98S                  
RAPID CITY     CLEAR     50  45  83 W7        30.05R                  
GLASGOW        CLEAR     50  38  63 W3        29.98S                  
SIDNEY         PTCLDY    47  43  86 SW6       29.99S                  
WOLF POINT     CLEAR     40  38  93 CALM      29.99S                  
GLENDIVE       CLOUDY    50  43  76 CALM      30.04S                  
MILES CITY     CLEAR     51  45  79 NW5       30.02S                  
BAKER          CLEAR     42  37  82 CALM      30.04S                  
$$
  
CITY           SKY/WX    TMP DP  RH WIND       PRES   REMARKS
BILLINGS       CLEAR     51  41  68 CALM      30.05F                  
GREAT FALLS    CLOUDY    42  33  70 S9        30.03S                  
REGINA         CLEAR     43  43 100 SW8       29.92S                  
$$

  


214 
ASUS43 KBIS 290810
RWRND 

NORTH DAKOTA REGIONAL WEATHER ROUNDUP
NATIONAL WEATHER SERVICE BISMARCK ND
300 AM CDT SUN MAY 29 2016

NOTE: "FAIR" INDICATES FEW OR NO CLOUDS BELOW 12,000 FEET WITH NO
SIGNIFICANT WEATHER AND/OR OBSTRUCTIONS TO VISIBILITY.


NDZ001>003-009>011-017-290900-
NORTHWEST NORTH DAKOTA
  
CITY           SKY/WX    TMP DP  RH WIND       PRES   REMARKS
WILLISTON      CLEAR     45  43  93 CALM      29.97S                  
MINOT          PTCLDY    56  54  93 SW6       29.93F                  
MINOT AFB      CLEAR     53  52  97 SW7       29.93S                  
$$
 
NDZ018>021-031>035-040>046-290900-
SOUTHWEST NORTH DAKOTA
  
CITY           SKY/WX    TMP DP  RH WIND       PRES   REMARKS
BISMARCK       CLEAR     52  51  97 W5        29.96S                  
DICKINSON      PTCLDY    47  46  97 W8        29.99R                  
GARRISON         N/A     51  49  92 NW7       29.95S                  
HETTINGER ARPT FOG       39  38  96 CALM      30.03S VSB 1/4          
$$
 
NDZ004>008-012>016-024-026-027-054-290900-
NORTHEAST NORTH DAKOTA
  
CITY           SKY/WX    TMP DP  RH WIND       PRES   REMARKS
GRAND FORKS    CLOUDY    59  57  93 NW5       29.86S                  
GRND FRKS AFB  CLOUDY    59  59 100 CALM      29.87S FOG              
DEVILS LAKE    CLOUDY    58  57  97 N6        29.92S                  
$$
 
NDZ022-023-025-028>030-036>039-047>053-290900-
SOUTHEAST NORTH DAKOTA
  
CITY           SKY/WX    TMP DP  RH WIND       PRES   REMARKS
FARGO          CLOUDY    60  58  92 NW7       29.87R                  
JAMESTOWN      CLOUDY    54  53  97 NW3       29.90S                  
$$ 

  

Return to Home page


Western Regional Climate Center, wrcc@dri.edu